Location: *
(51.5000°N, 0.1100°W)
Time: 05:30:32
(UTC+00:00)

IDEFIX/ARIANE 42P - Pass Details

Date: 07 August 2024
Orbit: 782 x 799 km, 98.5° (Epoch: 08 September)

Event Time Altitude Azimuth Distance (km) Brightness Sun altitude
Rises 02:27:03 0° 12° (NNE) 3,284 7.1 -15.6°
Reaches altitude 10° 02:29:24 10° 8° (N) 2,351 6.0 -15.4°
Maximum altitude 02:34:28 56° 292° (WNW) 934 2.8 -14.9°
Enters shadow 02:37:38 22° 222° (SW) 1,649 3.6 -14.6°
